GEFSSGP_con_probscp_288.txt.gz
Probability
11 6 2 1 1 0 0 0 0 0 0 0 0 0 0 0 0 0 0 0 0 0 2 5 7 7 5 5 5 4 5 3 1 0 0 0 2 4 4 3 2 1 0 1 2 4 4 5 5
5 4 3 1 0 0 0 0 0 0 0 0 0 0 0 0 0 0 0 0 0 0 2 4 6 7 5 4 4 4 3 3 1 0 0 1 2 3 3 3 2 1 0 1 2 4 5 6 6
1 2 3 2 1 0 0 0 0 0 0 0 0 0 0 0 0 0 1 1 1 0 1 2 6 8 6 5 5 4 3 2 1 1 1 2 2 2 2 3 3 2 1 1 1 3 5 6 5
0 1 2 2 2 1 0 0 0 0 0 0 0 0 0 0 0 0 1 1 1 0 0 1 5 7 7 6 6 5 4 3 3 2 2 2 1 1 1 2 3 3 1 0 0 2 4 4 4
0 0 0 1 1 0 0 0 1 1 0 0 0 0 0 0 0 0 0 1 1 1 1 2 4 5 6 7 7 6 5 4 4 3 2 1 1 2 2 2 4 4 3 1 1 1 2 3 3
0 0 0 0 0 0 0 1 2 1 0 0 0 0 0 0 0 0 0 1 1 1 2 3 3 4 6 7 8 6 4 4 4 4 3 2 2 3 3 3 5 6 6 4 3 2 1 1 2
1 0 0 0 0 0 0 1 1 1 0 0 0 0 0 0 0 0 0 0 0 1 2 3 3 4 4 6 7 5 4 3 3 4 4 3 3 3 3 4 6 7 7 7 5 3 2 1 1
2 1 0 0 0 0 0 0 0 0 0 0 0 0 0 0 0 0 0 0 0 0 1 2 2 2 1 3 5 4 3 3 3 4 5 4 3 2 3 4 6 6 7 7 7 6 5 3 3
2 1 0 0 0 0 0 0 0 1 1 1 1 1 1 1 1 1 0 0 0 0 0 1 1 1 0 1 3 3 2 2 1 2 3 3 1 1 1 2 4 5 6 6 7 8 8 6 4
1 0 0 0 0 0 0 0 1 2 3 3 4 4 3 2 2 1 0 0 0 0 0 0 0 0 0 1 2 1 1 1 0 1 1 1 0 0 0 1 3 4 5 4 4 6 8 6 4
0 0 0 0 0 0 0 1 3 4 4 4 6 5 3 1 1 1 1 2 1 1 0 0 0 0 0 1 2 1 0 0 1 1 1 0 0 0 0 1 2 3 2 1 1 2 3 2 1
0 0 0 0 0 0 0 1 3 6 7 7 6 5 3 2 2 2 3 3 2 2 1 0 0 0 0 1 1 0 0 1 2 2 2 1 0 0 0 0 1 1 1 0 0 0 0 0 0
0 0 0 0 0 0 0 1 3 7 10 10 8 6 4 3 3 3 3 3 2 2 1 0 0 0 0 0 0 0 0 1 2 3 3 2 1 0 0 0 0 0 0 0 0 0 0 0 0
0 0 0 0 0 0 0 1 3 7 10 11 9 6 5 4 3 3 3 2 1 1 1 0 0 0 0 0 0 0 0 0 1 3 3 2 1 0 0 0 0 0 0 0 0 0 0 0 0
0 0 0 0 0 0 0 1 2 5 9 10 8 5 4 4 3 3 3 3 1 0 0 1 1 0 0 0 0 0 0 0 1 2 3 2 1 0 0 0 0 0 0 0 0 0 0 0 0
0 0 0 0 0 0 0 0 1 4 8 9 8 5 3 4 5 5 5 4 2 1 1 2 2 1 0 0 0 0 0 0 0 1 1 2 1 0 0 0 0 0 0 0 0 0 0 0 0
0 0 0 0 0 0 0 0 1 3 6 9 9 6 4 4 7 8 7 5 3 2 2 3 2 1 0 0 1 1 1 1 1 1 1 1 1 0 0 0 0 0 0 0 1 1 1 0 0
0 0 0 0 0 0 0 0 1 2 5 9 10 8 6 5 6 8 8 7 5 3 3 3 1 0 1 1 2 2 2 1 1 1 0 0 1 1 0 0 0 0 0 0 2 2 1 0 0
0 0 0 0 0 0 0 0 0 2 5 9 10 9 7 5 5 8 10 9 8 6 5 3 1 1 1 2 3 3 2 1 1 0 0 1 1 1 1 1 1 1 1 1 1 1 1 0 0
0 0 0 0 0 0 0 0 0 1 5 8 10 11 10 7 5 8 12 12 11 10 7 4 3 2 3 4 4 5 4 2 1 1 1 1 1 1 1 2 3 2 2 2 1 0 0 0 0
0 0 0 0 0 0 0 0 1 2 4 8 11 12 12 10 7 8 11 12 13 12 9 7 5 4 4 5 7 8 7 5 3 3 2 1 0 0 1 3 3 3 3 2 1 0 0 0 0
0 0 0 0 0 0 0 1 2 3 5 7 9 11 11 10 8 7 8 10 12 10 8 7 6 6 6 7 9 10 10 8 6 5 3 1 1 1 2 3 3 3 3 3 2 2 1 0 0
1 1 0 0 0 0 0 1 2 4 6 7 9 11 11 10 8 7 7 8 9 9 7 6 6 6 7 8 10 11 11 10 7 5 4 3 2 3 3 3 3 3 3 3 3 2 1 0 0
2 1 0 0 0 0 0 1 2 4 5 6 8 11 12 10 8 7 6 7 8 9 9 9 9 8 7 8 10 11 11 9 7 4 3 3 4 4 4 4 3 3 4 4 2 1 1 0 0
1 1 0 0 0 0 0 1 2 4 5 7 9 12 11 8 7 6 7 7 8 9 12 15 16 12 9 9 10 10 10 8 5 3 3 4 5 6 6 5 5 5 4 2 1 0 0 0 0
0 0 0 0 0 0 0 1 2 4 6 9 11 11 9 7 5 5 7 9 10 10 14 19 21 19 14 11 10 9 8 6 4 3 4 5 5 6 6 6 6 6 4 2 1 1 1 0 0
0 0 0 0 0 0 0 1 2 3 5 8 11 11 9 7 5 4 6 11 13 12 14 19 22 21 18 14 11 8 6 4 3 3 4 4 4 4 5 4 5 5 4 3 2 2 1 0 0
0 0 0 0 0 0 0 1 3 4 4 6 9 10 11 9 7 6 7 11 15 15 15 18 20 19 18 15 12 8 5 4 4 4 5 5 4 3 3 3 3 3 3 2 2 1 1 0 0
0 0 0 0 0 0 0 1 3 5 5 7 8 9 12 11 9 7 8 10 14 16 17 19 20 20 19 16 13 11 9 6 4 5 5 4 3 1 1 2 2 1 1 1 1 0 0 0 0
0 0 0 0 0 0 1 2 4 5 7 8 9 9 11 12 9 7 7 9 12 16 20 23 22 23 22 18 15 15 13 8 4 4 4 2 1 0 1 2 2 1 0 0 0 0 0 0 0

GEFSSGP_con_probscp_294.txt.gz
Probability
0 0 0 0 0 0 0 0 0 0 0 0 0 0 0 0 0 0 0 0 0 0 1 2 3 3 3 3 3 3 3 2 2 1 1 2 3 3 3 3 3 3 3 3 2 1 1 1 3
0 0 1 1 0 0 0 0 0 0 0 0 0 0 0 0 0 0 0 0 0 0 1 3 4 4 4 3 3 3 2 1 1 0 1 3 3 3 3 3 3 3 4 4 3 2 1 2 2
0 0 1 2 1 0 0 0 0 0 0 0 0 0 0 0 0 0 0 0 0 0 1 3 5 6 5 4 3 3 2 1 1 1 3 4 4 3 3 3 3 4 4 4 3 2 2 2 1
0 0 1 1 1 0 0 0 0 0 0 0 0 0 0 0 0 0 0 0 0 0 1 3 4 5 5 4 4 3 3 2 2 2 3 3 3 3 3 3 3 3 4 3 2 2 2 2 2
1 0 0 0 0 0 0 0 0 0 0 0 0 0 0 0 0 0 0 0 0 0 1 2 3 4 5 5 5 4 3 3 3 3 2 2 2 3 3 2 2 2 3 3 2 2 4 5 6
2 1 0 0 0 0 0 0 0 0 0 0 0 0 0 0 0 0 0 0 0 0 1 2 2 3 5 5 5 4 3 3 4 3 3 2 2 2 2 1 1 1 2 3 3 4 6 7 7
2 1 0 0 0 0 0 0 0 0 0 0 0 0 0 0 1 1 0 0 0 0 0 1 1 2 3 4 5 5 4 4 4 4 3 2 1 2 2 1 0 1 2 3 4 5 6 7 7
1 0 0 0 0 0 0 0 0 0 0 0 0 0 0 1 2 2 1 0 0 0 0 0 0 1 2 3 4 5 5 5 3 2 2 1 0 1 1 1 1 2 2 3 4 5 7 8 7
0 0 0 0 0 0 0 0 0 0 0 0 0 0 0 2 3 3 2 1 0 0 0 0 0 0 1 1 2 3 3 3 2 1 0 0 0 0 0 0 1 1 1 1 3 4 5 6 6
0 0 0 0 0 0 0 0 0 0 0 0 0 0 0 1 3 3 2 1 0 0 0 1 0 0 0 0 0 1 1 1 1 0 0 0 0 0 0 0 0 0 0 0 1 2 2 2 2
0 0 0 0 0 0 0 0 0 1 1 1 1 0 0 1 2 2 1 1 0 0 0 0 0 0 0 0 0 0 0 0 0 0 0 0 0 0 0 0 0 0 0 0 0 0 0 0 0
0 0 0 0 0 0 0 0 0 1 1 2 2 1 0 0 1 1 0 0 0 0 0 0 0 0 0 0 0 0 0 0 0 0 0 0 0 0 0 0 0 0 0 0 0 0 0 0 0
0 0 0 0 0 0 0 0 0 1 3 5 4 1 0 0 0 0 0 0 0 0 0 0 0 0 0 0 0 0 0 0 0 0 0 0 0 0 0 0 0 0 0 0 0 0 0 0 0
0 0 0 0 0 0 0 1 2 2 4 6 4 1 0 0 0 0 0 0 0 0 0 0 0 0 0 0 0 0 0 0 0 0 0 0 0 0 0 0 0 0 0 0 0 0 0 0 0
0 0 0 0 0 0 0 1 2 4 4 4 3 1 0 0 0 0 0 0 0 0 0 0 0 0 0 0 0 0 0 0 0 0 0 0 0 0 0 0 0 0 0 0 0 0 0 0 0
0 0 0 0 0 0 0 0 2 4 5 2 1 0 1 1 0 0 0 0 0 0 0 0 0 0 0 0 0 0 0 0 0 0 0 0 0 0 0 0 0 0 0 0 0 0 0 0 0
0 0 0 0 0 0 0 0 1 4 5 3 1 1 2 2 1 0 0 0 0 0 1 1 0 0 0 0 0 0 0 0 0 0 0 0 0 0 0 0 0 0 0 0 0 0 0 0 0
0 0 0 0 0 0 0 0 1 3 5 4 2 2 4 3 1 1 1 1 1 1 2 2 1 0 0 0 1 1 1 0 0 0 0 0 0 0 1 1 1 1 1 0 0 0 0 0 0
0 0 0 0 0 0 0 0 1 3 5 4 3 4 5 4 2 2 3 2 2 2 2 2 1 0 0 0 1 2 2 1 0 0 0 0 0 0 1 2 2 2 2 1 0 0 0 0 0
0 0 0 0 0 0 0 0 2 3 4 3 3 4 6 5 3 4 5 3 3 3 2 2 2 1 1 2 1 2 2 1 1 0 0 0 0 0 1 2 3 3 3 2 1 1 0 0 0
0 0 0 0 0 0 0 0 1 3 3 2 2 5 7 6 4 6 7 5 4 3 4 4 4 3 3 3 3 3 3 2 2 1 0 0 0 1 1 2 3 3 3 3 3 2 1 0 0
0 0 0 0 0 0 0 0 1 2 2 1 1 5 8 7 5 7 8 6 4 4 5 6 5 3 2 3 5 5 4 3 3 2 1 1 1 2 3 3 3 3 3 3 4 4 2 1 0
0 0 0 0 0 0 0 0 1 2 2 1 1 5 9 8 6 7 7 6 4 4 5 6 4 2 1 2 5 5 5 4 4 3 3 2 3 3 3 3 3 3 3 4 4 4 2 1 1
0 0 0 0 0 0 0 0 1 2 2 1 1 5 8 7 5 5 5 6 5 4 4 4 3 1 1 3 5 5 6 6 5 4 3 3 3 3 3 3 3 3 3 3 3 2 1 1 0
0 0 0 0 0 0 0 0 1 2 2 2 2 5 7 6 3 2 3 5 5 3 3 3 3 2 2 4 6 7 7 6 6 4 3 3 3 3 3 3 3 2 2 2 1 1 0 0 0
0 0 0 0 0 0 0 1 2 3 3 3 3 5 7 5 2 1 1 3 3 2 2 2 2 2 2 4 6 8 7 6 5 4 3 3 3 4 4 4 2 2 1 1 0 0 0 0 0
0 0 0 0 0 0 1 2 3 3 4 4 4 5 6 6 3 1 1 2 2 1 1 1 1 1 2 3 5 7 6 4 3 3 3 3 3 3 3 3 2 2 1 0 0 0 0 0 0
0 0 0 0 0 0 1 2 3 3 3 4 4 5 5 4 3 1 0 1 2 2 1 1 1 2 3 5 6 6 4 2 1 2 2 1 1 1 1 1 1 1 1 0 0 0 0 0 0
0 0 0 0 0 0 0 1 1 3 3 4 4 4 3 3 2 1 0 1 2 4 4 3 3 5 7 8 8 5 2 0 0 1 1 0 0 0 0 0 0 0 0 0 0 0 0 0 0
0 0 0 0 0 0 0 0 1 2 4 5 5 4 3 3 3 1 0 1 2 4 5 5 5 7 10 10 9 5 1 0 0 0 0 0 0 0 0 0 0 0 0 0 0 0 0 0 0

GEFSSGP_con_probscp_300.txt.gz
Probability
3 2 3 6 4 1 0 0 0 0 0 0 0 0 0 0 0 0 0 0 0 0 1 3 5 4 2 1 2 1 0 0 0 1 0 1 2 3 3 3 3 3 3 3 2 1 1 2 3
4 3 6 8 4 0 0 0 0 0 0 0 0 0 0 0 0 0 0 0 0 0 1 3 4 3 3 3 4 3 2 0 1 1 1 1 2 3 3 3 3 3 3 3 3 2 2 2 2
5 5 7 6 2 0 0 0 0 0 0 0 0 0 0 0 0 0 0 0 0 0 1 2 3 3 4 5 6 6 4 2 1 2 2 2 2 3 3 3 3 3 3 3 3 3 3 3 3
6 7 7 4 1 0 0 0 0 0 0 0 0 0 0 0 0 0 0 0 0 0 1 2 3 4 5 6 6 6 5 4 3 3 3 2 2 2 3 4 3 3 3 3 3 3 3 3 2
6 6 5 2 0 0 0 0 0 0 0 0 0 0 0 0 0 0 0 0 0 0 1 2 3 4 4 4 4 5 5 4 4 3 3 3 2 2 3 3 3 2 2 2 2 3 2 2 1
5 4 2 0 0 0 0 0 0 0 0 0 0 0 0 0 0 0 0 0 0 0 0 1 2 3 4 4 4 4 5 5 3 3 3 3 2 2 2 2 1 1 1 1 1 1 2 2 2
3 2 0 0 0 0 0 0 0 0 0 0 0 0 0 0 0 0 0 0 0 0 0 0 1 3 5 5 4 4 5 4 3 1 1 2 2 2 1 1 0 0 0 0 0 0 1 2 3
3 1 0 0 0 0 0 0 0 0 0 0 0 0 0 0 0 0 0 0 0 0 0 1 1 3 4 4 4 3 4 4 2 1 0 1 1 0 0 0 1 1 1 0 1 1 2 3 4
3 1 0 0 0 0 0 0 0 0 0 0 0 0 0 0 0 0 0 0 0 0 1 2 3 3 3 3 2 2 3 4 3 1 0 0 0 0 0 0 1 2 2 2 2 3 3 4 5
1 0 0 0 0 0 0 0 0 0 0 0 0 0 0 0 0 0 0 0 0 0 1 2 3 3 3 3 3 3 3 4 3 1 0 0 0 0 0 0 1 1 2 2 3 4 4 5 6
0 0 0 0 0 0 0 0 0 0 0 0 0 0 0 0 0 0 0 0 0 0 1 2 3 3 3 3 3 3 3 3 3 1 0 0 0 0 1 0 0 0 1 1 2 3 3 5 6
0 0 0 0 0 0 0 0 0 0 0 0 0 0 1 1 0 0 0 0 0 0 0 1 1 2 3 2 2 3 3 3 3 2 1 0 0 0 1 1 1 0 0 0 1 2 2 3 5
0 0 0 0 0 0 0 0 0 0 0 0 0 1 2 1 0 0 1 1 0 0 0 0 1 1 1 1 2 3 3 3 3 3 1 0 0 1 2 2 2 2 2 1 1 2 2 2 2
0 0 0 0 0 0 0 0 0 0 0 0 0 1 2 1 0 0 1 2 1 1 0 0 0 0 0 1 2 3 3 3 2 1 0 0 1 2 3 3 4 4 4 4 3 3 3 2 1
0 0 0 0 0 0 0 0 0 1 1 1 1 2 2 1 0 0 1 3 3 3 2 0 0 1 1 1 1 1 2 2 1 0 0 0 1 2 2 3 3 5 6 7 7 5 3 2 1
0 0 0 0 0 0 0 0 0 1 1 2 3 4 2 1 0 0 1 4 6 5 4 2 1 2 2 2 1 0 1 1 1 0 0 0 0 1 2 2 2 4 8 9 7 4 3 2 1
0 0 0 0 0 0 0 0 0 0 0 2 4 5 4 2 1 0 2 5 6 5 4 3 3 3 3 3 2 1 1 0 0 0 0 0 0 1 3 3 2 4 9 9 5 3 3 2 1
0 0 0 0 0 0 0 0 0 0 0 2 4 6 6 4 2 1 3 6 6 4 3 3 3 3 3 3 3 3 2 1 0 0 0 0 0 1 3 3 3 4 8 9 6 4 5 4 4
0 0 0 0 0 0 0 0 0 0 0 2 4 6 6 5 4 4 5 7 6 4 3 3 3 3 3 4 3 3 2 1 0 0 0 0 0 1 2 3 3 4 7 9 8 6 6 6 5
0 0 0 0 0 0 0 0 0 0 0 1 2 4 6 6 6 6 7 8 7 4 3 3 4 4 4 5 4 3 2 1 0 1 2 1 1 1 2 2 3 4 6 8 8 7 5 5 6
0 0 0 0 0 0 0 0 0 0 0 0 1 3 6 8 8 8 9 10 9 5 3 4 5 5 6 6 5 3 3 1 1 2 3 3 2 2 3 3 3 4 6 7 7 6 4 4 6
0 0 0 0 0 0 0 0 0 0 0 1 2 4 7 9 9 9 11 13 11 6 3 5 7 7 7 7 6 5 4 3 2 4 5 4 3 3 3 3 4 5 6 5 4 4 3 4 4
0 0 0 0 0 0 0 0 0 0 0 1 2 4 8 10 8 8 10 13 11 6 3 4 7 7 8 8 8 7 6 4 4 6 7 5 4 3 4 4 4 5 5 4 3 3 4 3 3
0 0 0 0 0 0 0 0 0 1 1 1 2 3 6 9 8 6 9 10 9 5 3 4 6 9 9 10 10 10 8 7 7 8 7 5 4 4 5 5 5 5 4 4 3 4 4 3 3
0 0 0 0 0 0 0 0 2 4 4 4 3 4 6 8 8 7 8 9 7 4 3 5 8 11 11 10 11 11 10 9 9 8 7 6 4 5 5 5 4 4 4 4 3 3 4 3 2
0 0 0 0 0 0 0 1 4 7 8 7 6 5 5 7 8 8 8 8 5 3 3 5 10 14 13 11 11 11 10 8 8 9 8 6 6 5 4 4 3 3 4 4 4 4 3 2 1
0 0 0 0 0 0 0 1 4 8 9 9 8 6 6 7 8 9 8 7 4 3 3 5 9 12 13 11 10 10 10 9 10 10 8 7 7 4 2 2 3 3 3 4 6 5 4 2 1
1 0 0 0 0 0 0 0 3 7 9 9 7 5 6 8 9 9 8 6 5 4 3 4 6 9 10 9 9 10 11 13 12 10 8 7 5 2 1 1 2 3 4 5 7 6 4 3 3
2 1 0 0 0 0 0 0 2 6 9 8 5 4 5 8 9 9 9 8 7 7 5 4 4 6 8 9 8 9 13 15 14 11 8 6 4 2 2 3 4 5 6 6 6 4 4 4 4
3 2 1 0 0 0 0 0 2 6 9 8 5 3 4 7 9 9 10 10 10 9 6 4 3 4 8 11 9 8 12 15 13 11 9 7 4 3 3 4 7 8 7 6 5 4 4 5 5

GEFSSGP_con_probscp_306.txt.gz
Probability
1 5 14 24 23 11 2 0 0 0 0 0 0 0 0 0 0 0 0 0 1 2 2 2 2 1 1 2 2 1 0 1 2 1 0 0 0 0 0 0 0 0 0 0 1 1 0 0 0
3 9 20 26 19 7 1 0 0 0 0 0 0 0 0 0 0 0 0 0 1 2 2 3 3 2 2 3 3 1 1 2 3 2 1 0 0 0 0 0 0 0 0 1 2 1 1 1 1
8 15 25 24 12 2 0 0 0 0 0 0 0 0 0 0 0 0 0 0 0 1 3 3 3 4 4 4 3 3 3 3 3 3 2 1 0 0 0 0 0 0 2 3 2 1 1 2 2
15 22 25 17 5 0 0 0 0 0 0 0 0 0 0 0 0 0 0 0 0 1 2 3 4 5 6 5 5 6 5 4 3 3 3 2 1 0 0 0 0 0 2 3 2 2 2 3 3
20 24 21 10 2 0 0 0 0 0 0 0 0 0 0 0 0 0 0 0 0 1 2 4 5 6 7 6 7 7 6 4 3 3 3 3 1 1 1 1 1 1 1 1 1 1 2 3 4
19 21 15 5 0 0 0 0 0 0 0 0 0 0 0 0 0 0 0 0 0 1 2 4 5 7 7 7 7 8 7 5 4 3 3 3 2 1 1 2 3 2 0 0 1 1 2 3 5
14 13 8 2 0 0 0 0 0 0 0 0 0 0 0 0 0 0 0 0 0 0 1 3 4 5 6 6 6 7 6 6 5 4 3 3 1 1 1 2 3 2 1 1 2 3 3 3 5
8 6 3 1 0 0 0 0 0 0 0 0 0 0 0 0 0 0 0 0 0 0 0 1 2 3 4 4 5 5 5 5 5 4 3 2 1 0 0 1 1 1 2 3 4 4 4 4 5
3 2 0 0 0 0 0 0 0 0 1 2 2 1 0 0 0 0 0 0 0 0 0 0 0 1 1 2 4 4 4 4 4 3 2 1 0 0 0 0 1 2 3 4 5 5 5 6 5
1 0 0 0 0 0 0 0 0 1 2 4 4 3 1 0 0 0 0 0 0 0 0 0 0 0 0 1 2 3 3 3 3 3 2 1 0 0 1 2 3 4 3 4 5 6 7 7 5
0 0 0 0 0 0 0 0 0 1 3 5 5 4 2 1 0 0 0 1 1 0 0 1 1 1 0 1 1 1 1 2 3 3 4 3 2 1 2 4 5 6 4 4 5 6 7 6 5
0 0 0 0 0 0 0 0 0 1 3 5 4 3 1 0 0 0 1 3 2 1 1 2 3 2 1 2 2 0 0 1 2 3 4 5 5 4 4 6 9 8 5 4 4 5 5 5 5
0 0 0 0 0 0 0 0 0 1 3 4 3 1 0 0 0 0 1 3 3 2 2 3 4 3 4 5 4 2 1 1 2 3 4 5 8 7 6 8 10 9 8 6 4 3 3 3 3
0 0 0 0 0 0 0 0 0 1 3 4 3 1 1 1 0 0 2 3 4 4 4 5 4 4 5 6 6 3 2 3 3 3 5 6 9 11 10 9 10 10 10 10 7 4 4 3 2
0 0 0 0 0 0 0 0 0 1 3 4 4 3 2 2 1 1 3 4 4 5 6 5 4 4 4 5 6 5 3 4 5 6 7 9 11 13 13 11 10 12 14 14 12 9 7 5 3
0 0 0 0 0 0 0 0 0 2 3 5 5 4 4 4 3 2 4 4 5 7 7 6 5 4 3 4 5 5 4 3 4 6 8 10 11 12 14 12 12 15 17 16 15 13 10 6 3
0 0 0 0 0 0 0 0 0 1 2 4 6 6 6 6 5 4 4 5 7 9 9 8 6 5 4 3 4 4 4 4 4 6 8 9 10 10 12 12 13 14 15 16 15 14 11 6 3
0 0 0 0 0 0 0 0 0 0 1 3 6 7 7 7 7 6 5 5 7 10 11 10 8 6 5 5 5 5 5 5 5 6 8 9 9 10 11 12 13 12 13 16 17 15 11 7 5
0 0 0 0 0 0 0 0 0 0 0 2 5 8 9 9 9 9 7 6 7 10 13 14 11 8 9 9 8 7 5 4 5 7 9 9 9 11 13 14 13 11 12 16 18 16 12 9 7
0 0 0 0 0 0 0 0 0 1 1 1 4 8 11 11 11 13 12 9 9 11 14 16 15 12 11 11 9 7 5 4 5 8 10 9 9 11 14 17 15 12 11 14 17 17 14 11 9
0 0 0 0 0 0 0 1 1 1 1 1 3 8 12 12 13 16 16 13 11 11 13 16 17 15 12 11 8 6 6 5 7 9 10 9 10 13 17 19 18 14 12 12 13 14 13 11 9
0 0 0 0 0 0 0 2 3 1 1 1 3 7 12 13 13 15 17 14 11 9 11 15 18 16 13 10 8 7 7 7 8 9 10 10 12 15 18 19 18 15 12 10 9 10 11 10 9
0 0 0 0 1 0 0 2 4 2 1 3 5 8 14 16 14 15 17 16 11 8 11 17 20 17 13 11 10 10 10 8 9 10 11 12 14 16 17 18 17 15 13 11 10 9 9 10 10
0 0 0 1 1 0 0 2 4 3 3 6 8 11 17 18 16 16 18 16 11 8 11 19 24 21 16 13 12 13 12 10 10 11 13 14 15 16 17 18 18 18 16 14 13 13 12 12 12
0 0 0 1 1 0 0 2 4 5 7 9 11 14 18 18 16 17 19 16 12 10 13 22 29 28 22 18 16 15 14 12 12 14 16 16 15 16 18 20 22 21 18 17 16 16 15 15 14
0 0 0 1 1 0 1 3 5 7 9 11 14 15 17 17 16 17 19 18 15 15 18 25 32 34 29 24 21 17 15 14 15 17 19 18 16 17 20 23 24 22 18 17 17 17 17 16 15
0 0 0 0 0 0 1 4 7 9 10 12 13 13 15 17 16 15 16 17 18 20 23 27 34 37 33 28 23 17 15 16 18 21 22 19 17 17 20 23 23 20 17 17 17 17 17 15 14
0 0 0 0 0 0 1 3 6 9 12 13 13 12 14 17 15 13 13 14 16 20 25 31 36 38 35 30 24 18 16 19 22 25 25 23 20 19 20 21 21 18 17 16 16 17 17 16 15
0 0 0 0 0 0 1 4 6 9 13 15 14 13 15 16 14 12 12 13 15 17 24 32 36 38 36 32 28 24 22 24 26 27 26 25 24 22 21 21 21 19 17 15 15 17 17 16 16
0 0 0 0 0 0 2 6 9 11 15 17 15 14 15 15 14 13 12 13 16 17 23 30 36 38 39 36 33 30 28 28 28 26 24 25 25 24 22 22 22 20 16 15 14 16 17 16 15

GEFSSGP_con_probscp_312.txt.gz
Probability
5 3 1 1 1 0 0 0 0 0 0 0 0 0 0 0 0 0 0 1 3 3 3 3 4 6 9 9 6 4 3 3 3 3 3 3 4 5 6 6 7 7 4 2 3 5 4 2 2
2 2 2 3 2 1 0 0 0 0 0 0 0 0 0 0 0 0 1 2 3 3 3 3 5 7 9 9 7 4 3 3 3 3 2 2 3 4 5 5 6 6 5 2 2 3 2 2 2
1 2 4 4 3 1 0 0 0 0 0 0 0 0 0 0 0 0 1 2 3 3 1 2 6 8 9 9 8 5 3 3 3 2 1 1 1 2 3 4 5 5 5 4 2 1 2 2 3
2 3 5 5 3 0 0 0 0 0 0 0 0 0 0 0 0 0 0 1 3 2 1 2 6 8 9 9 9 6 4 4 3 2 1 0 0 0 1 2 3 4 5 5 3 1 2 3 4
4 4 5 5 2 0 0 0 0 0 0 0 0 0 0 0 0 0 0 1 2 3 1 2 5 7 7 8 8 7 6 5 4 3 1 0 0 0 0 0 1 2 4 5 4 2 2 4 5
4 4 4 3 1 0 0 0 0 0 0 0 0 0 0 0 0 0 0 1 2 3 2 2 4 6 6 6 6 6 6 6 5 3 1 0 0 0 0 0 0 0 2 4 4 3 3 4 4
4 4 3 1 0 0 0 0 0 0 0 0 0 0 0 0 0 0 0 1 2 3 3 4 5 6 5 5 6 6 6 6 5 3 1 0 0 0 0 1 1 0 1 2 3 3 3 3 3
4 4 3 1 0 0 0 0 0 0 0 0 0 0 0 0 0 0 0 1 2 3 3 5 5 5 4 5 6 6 5 4 3 2 1 0 0 0 0 1 1 1 1 3 3 2 3 3 4
4 3 2 1 0 0 0 0 0 0 0 0 0 0 0 0 0 0 0 0 1 1 2 3 3 3 2 3 4 4 4 3 3 2 1 0 0 0 0 1 2 2 3 3 5 5 4 5 5
3 3 2 1 0 0 0 0 0 1 1 0 0 0 0 0 0 0 0 0 0 0 1 1 1 1 0 1 3 3 3 3 3 2 1 0 0 0 0 0 1 2 3 4 6 6 6 5 5
3 3 2 0 0 0 0 0 0 1 1 0 0 0 0 0 0 0 0 0 0 0 0 0 0 0 0 1 2 3 3 3 3 3 2 1 1 0 0 0 1 1 2 3 4 4 4 4 4
3 2 1 0 0 0 0 0 0 0 0 0 0 0 0 0 0 0 0 0 1 1 1 0 0 0 0 1 1 2 2 2 2 2 2 2 2 1 0 0 0 0 1 1 1 2 3 4 4
2 1 1 0 0 0 1 1 1 1 0 0 0 0 0 0 0 0 0 1 2 2 1 0 0 0 0 0 0 0 1 1 1 1 1 3 2 1 0 0 0 0 0 0 0 1 3 5 4
1 0 0 0 0 0 2 3 3 2 1 0 0 0 0 0 1 1 1 3 4 4 3 1 0 0 0 0 0 0 0 0 0 0 1 2 2 1 0 0 0 0 0 0 0 1 3 4 3
0 0 0 0 0 0 2 4 5 4 2 1 1 1 0 1 2 2 3 3 4 4 5 3 1 0 0 0 0 0 0 0 0 0 0 1 1 0 0 0 0 0 0 0 0 1 1 1 1
0 0 0 0 0 0 1 3 5 5 4 2 1 1 1 1 3 3 3 4 4 4 6 5 2 1 0 0 0 0 0 0 0 0 0 0 0 0 0 0 0 0 0 0 1 1 0 0 0
0 0 0 0 0 0 0 2 4 5 4 3 2 1 2 3 3 3 3 4 4 5 5 3 1 0 0 0 0 0 0 0 0 0 1 1 1 0 0 0 0 0 0 0 1 2 1 0 0
0 0 0 0 0 0 0 1 4 6 5 5 3 2 2 3 3 2 3 4 4 4 3 1 0 0 0 0 0 0 0 0 1 0 1 2 2 1 1 2 1 1 1 1 1 2 1 0 0
0 0 0 0 0 0 0 1 3 5 6 5 3 2 3 3 2 1 2 3 3 3 2 1 1 1 1 0 0 0 0 0 1 1 1 3 3 3 4 4 3 2 2 2 1 1 1 0 0
0 0 0 0 0 1 1 0 1 4 6 5 3 2 3 3 1 1 1 3 4 3 2 1 2 2 2 1 0 0 0 1 1 2 3 3 4 6 6 5 4 3 3 3 2 2 1 1 1
0 0 0 0 0 1 1 0 0 2 5 6 4 3 3 3 2 2 2 4 6 5 3 3 3 3 3 2 1 1 1 2 3 3 3 4 5 6 6 5 3 3 3 3 3 2 2 2 2
0 0 0 0 0 1 1 0 0 1 4 5 5 5 4 3 4 4 4 6 8 8 5 3 3 3 3 3 3 3 3 3 3 3 4 5 6 6 5 4 3 2 2 2 2 1 1 2 1
0 0 0 0 0 0 0 0 0 1 2 3 3 4 5 4 5 6 6 7 9 9 6 4 3 4 3 4 5 5 4 3 3 4 5 6 5 5 3 2 3 2 1 1 1 1 1 1 1
0 0 0 0 0 0 0 0 0 0 1 2 2 3 5 6 7 8 9 8 9 9 7 5 5 5 4 5 6 6 5 4 4 5 6 5 3 2 1 1 2 2 1 0 1 1 1 2 2
0 0 0 0 0 0 0 0 0 1 1 1 2 3 5 8 10 11 10 10 10 11 10 9 7 6 6 5 6 6 5 4 5 7 7 4 2 1 1 1 1 1 0 0 1 2 2 3 4
0 0 0 0 0 0 0 0 0 1 1 1 2 5 7 9 12 13 12 11 12 14 14 12 10 7 6 5 5 6 5 4 4 6 6 4 2 1 1 2 2 1 0 0 1 3 3 3 3
0 0 0 0 0 0 0 0 0 0 0 0 2 6 8 9 11 13 13 13 14 16 15 13 11 8 6 5 6 5 4 3 3 4 4 3 3 1 1 3 3 2 1 0 1 2 2 2 3
0 0 0 0 0 0 0 0 0 1 1 1 4 7 9 9 9 12 14 15 15 16 15 13 11 9 7 6 7 6 5 4 4 4 4 5 4 2 2 4 4 3 1 0 0 1 1 1 2
0 0 0 0 0 0 0 0 1 2 3 3 5 8 10 10 10 12 14 16 17 18 17 14 12 12 10 9 9 9 9 9 8 8 9 9 8 5 4 5 5 3 1 1 1 2 1 1 2
0 0 0 0 0 0 0 0 1 3 4 4 6 8 10 10 10 12 14 16 19 22 20 15 12 14 15 12 10 11 13 15 13 11 13 14 12 9 6 6 6 4 2 2 2 3 2 3 4